Hourly Weather Roundup
Issued by NWS

Home | Current Version | Previous Version | Text Only | Print | Product List | Glossary On
Versions: 1 2 3 4 5 6 7 8 9 10 11 12 13 14 15 16 17 18 19 20 21 22 23 24 25 26 27 28 29 30 31 32 33 34 35 36 37 38 39 40 41 42 43 44 45 46 47 48 49 50
000
NZUS43 KILX 050910
HWRCRS

CRS HOURLY WEATHER ROUNDUP
NATIONAL WEATHER SERVICE, LINCOLN IL
400 AM CDT SUN JUL 05 2015


CITY           SKY/WX    TMP DP  RH WIND       PRES   REMARKS
CHAMPAIGN      CLEAR     59  57  93 NW3       30.07R
LAWRENCEVILLE  CLOUDY    67  65  93 NW5       30.04R FOG
PEORIA         CLEAR     65  60  84 CALM      30.06S HAZE
SPRINGFIELD    CLEAR     65  61  87 CALM      30.05F FOG
$$


CITY           SKY/WX    TMP DP  RH WIND       PRES   REMARKS
BLOOMINGTON    CLEAR     65  63  93 SW5       30.08S
DECATUR        CLEAR     60  58  92 CALM      30.06S FOG
EFFINGHAM      CLEAR     64  61  91 CALM      30.06S FOG
FLORA          CLOUDY    65  65  98 NW5       30.05S FOG
GALESBURG      CLEAR     62  60  91 SE3       30.05F
JACKSONVILLE   CLEAR     64  62  91 SE3       30.05S
LACON          CLEAR     60  58  94 CALM      30.05S FOG
LINCOLN        CLEAR     61  58  91 CALM      30.07S FOG
LITCHFIELD     CLEAR     60  58  94 CALM      30.06S

CITY           SKY/WX    TMP DP  RH WIND       PRES   REMARKS
MACOMB         CLEAR     59  59  99 SE3       30.06F FOG
MATTOON        CLEAR     62  60  93 CALM      30.05R
MOLINE         CLEAR     64  59  83 CALM      30.03F
OLNEY          MOCLDY    64  64 100 CALM      30.04S FOG
PARIS          PTCLDY    60  60  99 CALM      30.07R FOG
PONTIAC        CLEAR     61  60  98 CALM      30.08R FOG
QUINCY         CLEAR     66  62  87 S5        30.04S
RANTOUL        CLEAR     65  62  92 CALM      30.08R
ROBINSON       MOCLDY    64  63  97 CALM      30.05S FOG
TAYLORVILLE      N/A     59  59 100 CALM      30.05S FOG
TERRE HAUTE    PTCLDY    63  62  97 CALM      30.05R FOG
$$


CITY           SKY/WX    TMP DP  RH WIND       PRES   REMARKS
BURLINGTON     CLEAR     64  63  96 S3        30.03F
CHICAGO        PTCLDY    62  59  90 CALM      30.06R SMOKE
DES MOINES     CLEAR     65  59  81 SE7       29.99S
EVANSVILLE     CLOUDY    71  68  90 CALM      30.02S SMOKE
INDIANAPOLIS   MOCLDY    66  58  75 N3        30.04S HAZE
KANSAS CITY    CLEAR     68  64  87 SE9       29.97F
MILWAUKEE      PTCLDY    66  56  70 CALM      30.05S
ST LOUIS       CLEAR     68  61  78 E3        30.05S HAZE
$$




USA.gov is the U.S. government's official web portal to all federal, state and local government web resources and services.